Previsão horária em Kerewan

Hoje, 24 Outubro, Sábado

Tempo Temperatura Precipitação Vento Pressão Humidade
00:00 +29°C° 0 mm 2 m/s 757 mmHg 74%
01:00 +28°C° 0 mm 2 m/s 757 mmHg 73%
02:00 +28°C° 0 mm 2 m/s 756 mmHg 72%
03:00 +28°C° 0 mm 2 m/s 756 mmHg 73%
04:00 +28°C° 0 mm 2 m/s 756 mmHg 74%
05:00 +27°C° 0 mm 2 m/s 756 mmHg 74%
06:00 +28°C° 0 mm 2 m/s 757 mmHg 70%
07:00 +30°C° 0 mm 1 m/s 757 mmHg 66%
08:00 +31°C° 0 mm 1 m/s 758 mmHg 62%
09:00 +33°C° 0 mm 1 m/s 757 mmHg 53%
10:00 +35°C° 0 mm 1 m/s 757 mmHg 44%
11:00 +35°C° 0 mm 0 m/s 757 mmHg 35%
12:00 +39°C° 0 mm 1 m/s 757 mmHg 33%
13:00 +39°C° 0 mm 1 m/s 756 mmHg 30%
14:00 +40°C° 0 mm 1 m/s 755 mmHg 27%
15:00 +38°C° 0 mm 2 m/s 755 mmHg 35%
16:00 +37°C° 0 mm 2 m/s 755 mmHg 42%
17:00 +35°C° 0 mm 2 m/s 755 mmHg 49%
18:00 +34°C° 0 mm 2 m/s 756 mmHg 56%
19:00 +33°C° 0 mm 3 m/s 756 mmHg 63%
20:00 +30°C° 0 mm 3 m/s 757 mmHg 69%
21:00 +30°C° 0 mm 2 m/s 757 mmHg 72%
22:00 +29°C° 0 mm 2 m/s 757 mmHg 76%
23:00 +29°C° 0 mm 2 m/s 757 mmHg 79%

Amanhã, 25 Outubro, Domingo

Tempo Temperatura Precipitação Vento Pressão Humidade
00:00 +29°C° 0 mm 2 m/s 756 mmHg 77%
01:00 +29°C° 0 mm 2 m/s 756 mmHg 74%
02:00 +29°C° 0 mm 2 m/s 755 mmHg 72%
03:00 +28°C° 0 mm 2 m/s 755 mmHg 73%
04:00 +28°C° 0 mm 2 m/s 755 mmHg 74%
05:00 +28°C° 0 mm 2 m/s 755 mmHg 75%
06:00 +29°C° 0 mm 2 m/s 755 mmHg 71%
07:00 +30°C° 0 mm 2 m/s 756 mmHg 67%
08:00 +31°C° 0 mm 1 m/s 756 mmHg 64%
09:00 +33°C° 0 mm 1 m/s 756 mmHg 55%
10:00 +35°C° 0 mm 1 m/s 756 mmHg 47%
11:00 +38°C° 0 mm 2 m/s 756 mmHg 38%
12:00 +39°C° 0 mm 2 m/s 755 mmHg 35%
13:00 +40°C° 0 mm 2 m/s 755 mmHg 31%
14:00 +41°C° 0 mm 2 m/s 754 mmHg 27%
15:00 +39°C° 0 mm 2 m/s 754 mmHg 32%
16:00 +38°C° 0 mm 2 m/s 754 mmHg 36%
17:00 +37°C° 0 mm 2 m/s 755 mmHg 41%
18:00 +35°C° 0 mm 2 m/s 755 mmHg 49%
19:00 +32°C° 0 mm 2 m/s 755 mmHg 57%
20:00 +30°C° 0 mm 2 m/s 756 mmHg 66%
21:00 +30°C° 0 mm 2 m/s 756 mmHg 70%
22:00 +29°C° 0 mm 3 m/s 756 mmHg 74%
23:00 +29°C° 0 mm 3 m/s 756 mmHg 78%

Depois de amanhã, 26 Outubro, Segunda-feira

Tempo Temperatura Precipitação Vento Pressão Humidade
00:00 +29°C° 0 mm 2 m/s 756 mmHg 79%
01:00 +28°C° 0 mm 2 m/s 755 mmHg 80%
02:00 +28°C° 0 mm 2 m/s 755 mmHg 81%
03:00 +28°C° 0 mm 2 m/s 755 mmHg 81%
04:00 +28°C° 0 mm 2 m/s 755 mmHg 81%
05:00 +27°C° 0 mm 2 m/s 755 mmHg 81%
06:00 +29°C° 0 mm 1 m/s 755 mmHg 76%
07:00 +30°C° 0 mm 1 m/s 756 mmHg 71%
08:00 +31°C° 0 mm 1 m/s 756 mmHg 66%
09:00 +33°C° 0 mm 1 m/s 756 mmHg 56%
10:00 +35°C° 0 mm 1 m/s 756 mmHg 47%
11:00 +37°C° 0 mm 1 m/s 756 mmHg 37%
12:00 +39°C° 0 mm 1 m/s 755 mmHg 33%
13:00 +40°C° 0 mm 1 m/s 754 mmHg 28%
14:00 +41°C° 0 mm 2 m/s 754 mmHg 23%
15:00 +39°C° 0 mm 2 m/s 754 mmHg 28%
16:00 +38°C° 0 mm 2 m/s 754 mmHg 33%
17:00 +37°C° 0 mm 2 m/s 754 mmHg 38%
18:00 +35°C° 0 mm 2 m/s 754 mmHg 48%
19:00 +32°C° 0 mm 2 m/s 755 mmHg 58%
20:00 +30°C° 0 mm 3 m/s 755 mmHg 67%
21:00 +29°C° 0 mm 2 m/s 755 mmHg 72%
22:00 +29°C° 0 mm 2 m/s 755 mmHg 76%
23:00 +28°C° 0 mm 2 m/s 755 mmHg 81%

, 27 Outubro, Terça-feira

Tempo Temperatura Precipitação Vento Pressão Humidade
00:00 +28°C° 0 mm 2 m/s 755 mmHg 84%
01:00 +27°C° 0 mm 2 m/s 755 mmHg 86%
02:00 +27°C° 0 mm 2 m/s 755 mmHg 89%
03:00 +27°C° 0 mm 2 m/s 755 mmHg 90%
04:00 +27°C° 0 mm 2 m/s 755 mmHg 92%
05:00 +27°C° 0 mm 2 m/s 755 mmHg 93%
06:00 +28°C° 0 mm 2 m/s 755 mmHg 85%
07:00 +29°C° 0 mm 2 m/s 755 mmHg 78%
08:00 +31°C° 0 mm 2 m/s 756 mmHg 70%
09:00 +34°C° 0 mm 2 m/s 756 mmHg 59%
10:00 +36°C° 0 mm 2 m/s 756 mmHg 48%
11:00 +38°C° 0 mm 2 m/s 756 mmHg 37%
12:00 +39°C° 0 mm 2 m/s 755 mmHg 33%
13:00 +39°C° 0 mm 2 m/s 754 mmHg 29%
14:00 +40°C° 0 mm 2 m/s 754 mmHg 26%
15:00 +38°C° 0 mm 2 m/s 754 mmHg 33%
16:00 +37°C° 0 mm 2 m/s 754 mmHg 41%
17:00 +35°C° 0 mm 3 m/s 754 mmHg 48%
18:00 +33°C° 0 mm 3 m/s 754 mmHg 57%
19:00 +31°C° 0 mm 3 m/s 755 mmHg 65%
20:00 +29°C° 0 mm 2 m/s 755 mmHg 73%
21:00 +29°C° 0 mm 2 m/s 755 mmHg 76%
22:00 +28°C° 0 mm 2 m/s 755 mmHg 79%
23:00 +28°C° 0 mm 2 m/s 756 mmHg 82%

27 Outubro, Terça-feira

Tempo Temperatura Precipitação Vento Pressão Humidade
00:00 +28°C° 0 mm 2 m/s 755 mmHg 84%
01:00 +27°C° 0 mm 2 m/s 755 mmHg 86%
02:00 +27°C° 0 mm 2 m/s 755 mmHg 89%
03:00 +27°C° 0 mm 2 m/s 755 mmHg 90%
04:00 +27°C° 0 mm 2 m/s 755 mmHg 92%
05:00 +27°C° 0 mm 2 m/s 755 mmHg 93%
06:00 +28°C° 0 mm 2 m/s 755 mmHg 85%
07:00 +29°C° 0 mm 2 m/s 755 mmHg 78%
08:00 +31°C° 0 mm 2 m/s 756 mmHg 70%
09:00 +34°C° 0 mm 2 m/s 756 mmHg 59%
10:00 +36°C° 0 mm 2 m/s 756 mmHg 48%
11:00 +38°C° 0 mm 2 m/s 756 mmHg 37%
12:00 +39°C° 0 mm 2 m/s 755 mmHg 33%
13:00 +39°C° 0 mm 2 m/s 754 mmHg 29%
14:00 +40°C° 0 mm 2 m/s 754 mmHg 26%
15:00 +38°C° 0 mm 2 m/s 754 mmHg 33%
16:00 +37°C° 0 mm 2 m/s 754 mmHg 41%
17:00 +35°C° 0 mm 3 m/s 754 mmHg 48%
18:00 +33°C° 0 mm 3 m/s 754 mmHg 57%
19:00 +31°C° 0 mm 3 m/s 755 mmHg 65%
20:00 +29°C° 0 mm 2 m/s 755 mmHg 73%
21:00 +29°C° 0 mm 2 m/s 755 mmHg 76%
22:00 +28°C° 0 mm 2 m/s 755 mmHg 79%
23:00 +28°C° 0 mm 2 m/s 756 mmHg 82%

28 Outubro, Quarta-feira

Tempo Temperatura Precipitação Vento Pressão Humidade
00:00 +28°C° 0 mm 2 m/s 755 mmHg 84%
01:00 +27°C° 0 mm 2 m/s 755 mmHg 86%
02:00 +27°C° 0 mm 2 m/s 755 mmHg 87%
03:00 +27°C° 0 mm 2 m/s 755 mmHg 89%
04:00 +27°C° 0 mm 1 m/s 755 mmHg 90%
05:00 +26°C° 0 mm 1 m/s 755 mmHg 91%
06:00 +28°C° 0 mm 2 m/s 755 mmHg 85%
07:00 +29°C° 0 mm 2 m/s 756 mmHg 79%
08:00 +30°C° 0 mm 2 m/s 756 mmHg 73%
09:00 +32°C° 0 mm 2 m/s 756 mmHg 63%
10:00 +35°C° 0 mm 2 m/s 756 mmHg 52%
11:00 +37°C° 0 mm 2 m/s 756 mmHg 41%
12:00 +38°C° 0 mm 2 m/s 755 mmHg 38%
13:00 +38°C° 0 mm 2 m/s 755 mmHg 36%
14:00 +39°C° 0 mm 2 m/s 754 mmHg 33%
15:00 +37°C° 0 mm 3 m/s 754 mmHg 41%
16:00 +35°C° 0 mm 4 m/s 754 mmHg 50%
17:00 +33°C° 0 mm 4 m/s 754 mmHg 59%
18:00 +32°C° 0 mm 4 m/s 755 mmHg 63%
19:00 +30°C° 0 mm 3 m/s 756 mmHg 68%
20:00 +29°C° 0 mm 3 m/s 756 mmHg 73%
21:00 +28°C° 0 mm 3 m/s 756 mmHg 74%
22:00 +28°C° 0 mm 2 m/s 756 mmHg 76%
23:00 +27°C° 0 mm 2 m/s 756 mmHg 77%

29 Outubro, Quinta-feira

Tempo Temperatura Precipitação Vento Pressão Humidade
00:00 +27°C° 0 mm 2 m/s 756 mmHg 78%
01:00 +27°C° 0 mm 2 m/s 756 mmHg 78%
02:00 +27°C° 0 mm 2 m/s 755 mmHg 79%
03:00 +26°C° 0 mm 2 m/s 755 mmHg 80%
04:00 +26°C° 0 mm 2 m/s 755 mmHg 81%
05:00 +26°C° 0 mm 2 m/s 755 mmHg 82%
06:00 +27°C° 0 mm 2 m/s 755 mmHg 76%
07:00 +29°C° 0 mm 2 m/s 756 mmHg 69%
08:00 +30°C° 0 mm 2 m/s 756 mmHg 63%
09:00 +32°C° 0 mm 2 m/s 756 mmHg 52%
10:00 +36°C° 0 mm 2 m/s 756 mmHg 42%
11:00 +38°C° 0 mm 2 m/s 756 mmHg 32%
12:00 +39°C° 0 mm 2 m/s 755 mmHg 28%
13:00 +39°C° 0 mm 2 m/s 755 mmHg 24%
14:00 +40°C° 0 mm 2 m/s 754 mmHg 20%
15:00 +38°C° 0 mm 2 m/s 754 mmHg 27%
16:00 +36°C° 0 mm 2 m/s 754 mmHg 34%
17:00 +35°C° 0 mm 2 m/s 754 mmHg 41%
18:00 +32°C° 0 mm 2 m/s 755 mmHg 49%
19:00 +30°C° 0 mm 3 m/s 756 mmHg 58%
20:00 +28°C° 0 mm 3 m/s 756 mmHg 66%
21:00 +28°C° 0 mm 2 m/s 756 mmHg 69%
22:00 +28°C° 0 mm 2 m/s 756 mmHg 72%
23:00 +27°C° 0 mm 1 m/s 756 mmHg 76%
Mostrar mais